BREEZE-M R/B, 38343

Orbit data source: Space-Track

BREEZE-M R/B, 38343 is space debris in HEO originally from a launch on Thu, 17 May 2012 UTC launched from the Tyuratam Missile And Space Complex (TTMTR). Debris objects in space refer to the collection of defunct objects orbiting the Earth. Examples of debris include non-operational satellites, rocket bodies, and fragments generated from explosions, collisions, or faulty payload assembly.

Loading next visibility...
Identifier
38343, 2012-026B
Orbit
HEO
Last TLE update
23 hours ago
Origin
Manufacturer
Khrunichev
Mission
Spacecraft
Bus & Motor
BRIZ, Unknown motor
Mass
~1,600 kg wet, 1,600 kg dry
Launch date (UTC)
2012-05-17 (13 years ago)
Launch vehicle
Unknown
Launch site
Tyuratam Missile And Space Complex (TTMTR)
Object type
Payload
Rocket body
Debris
Shape & HBR
Cyl, 4 m
Radar Cross Section
14.451 m², Large (>1 m²)

Expand to show TLE details & history

TLE from 23 hours ago
0 BREEZE-M R/B
1 38343U 12026B   25183.59120175 -.00000069  00000-0  00000-0 0  9997
2 38343   9.8875 164.4767 4120383 352.9057   2.5780  1.76702412 84393
Epoch: 2025-07-02T14:11Z
TLE epoch observation values (Epoch: 2025-07-02T14:11:19.831Z)
Latitude
0.00003°
Longitude
30.73714°
Altitude
10,662.216 km
Speed
5.744 km/s
True Right ascension
10h 57m 45s
True Declination
0° 00' 00"
Sunlit
Object was in daylight at epoch
Visualization orbit readout
Latitude
-5.2823°
Longitude
-117.26897°
Altitude
28,808.947 km
Speed
2.977 km/s
Apparent Right ascension
01h 04m 50s
Apparent Declination
-13° 37' 34"
Sunlit
Object is in daylight
Visualization observer readout
Local Sidereal Time
01:11:15
Azimuth
181.94° SSW
Elevation
36.437°
Doppler factor
1
Orbital elements
Apogee altitude
34,433.361 km
Perigee altitude
10,615.451 km
Semi-major axis
28,902.543 km
Eccentricity
0.41204
Inclination
9.8875°
RAAN
164.4767°
Arg. of periapsis
352.9057°
True anomaly
Unknown
Mean anomaly
2.578°
Eccentric anomaly
Unknown
Mean motion
0.44171 °/min
Orbital period
815.01 mins
BSTAR
0
Loading maneuver chart data...
Loading SW <> Apogee altitude chart data...
Loading historical data...
Loading historical data...
Loading historical data...
Loading historical data...
Loading historical data...
Loading historical data...
Loading historical data...

BREEZE-M R/B Visibility forecast

Observer location: undefined°, undefined°

Span
Click to sort rows by Start time (UTC) header in descending order
Start Az.
Max El. time (UTC)
Max El. Az.
Max El.
End time (UTC)
End Az.
178 mins2025-07-03 13:24:26.262Z181.939° SSW2025-07-03 13:24:26.262Z181.939° SSW30.697°2025-07-03 16:22:26.262Z133.83° SE
308 mins2025-07-04 08:16:26.262Z259.543° W2025-07-04 10:46:26.262Z237.457° WSW28.724°2025-07-04 13:24:26.262Z237.538° WSW
|